{"data":{"norad_id":69251,"intl_designator":"2026-117P","name":"STARLINK-37489","alt_names":[],"object_type":"PAYLOAD","status":"ACTIVE","operator":null,"country":"US","launch_date":"2026-05-29","launch_site_code":"AFETR","launch_vehicle":null,"mission":null,"orbit_class":"UNKNOWN","rcs_meters":null,"size_class":null,"mass_kg":null,"dimensions":null,"purposes":["comms"],"wikipedia_slug":null,"has_3d_model":false,"image_url":null,"decayed_at":null,"tle_current":{"epoch":"2026-09-20T00:05:00.945024Z","epoch_age_seconds":69933,"freshness":"FRESH","line1":"1 69251U 26117P   26263.00348316  .00012847  00000+0  39068-3 0  9994","line2":"2 69251  53.1588 155.8618 0000898  82.4924 277.6180 15.34402234 17594","mean_motion":15.34402234,"eccentricity":8.98e-5,"inclination_deg":53.1588,"raan_deg":155.8618,"arg_perigee_deg":82.4924,"mean_anomaly_deg":277.618,"bstar":0.00039068,"rev_number":1759,"period_min":93.847621444482,"perigee_km":462.08229343906,"apogee_km":463.31090715367,"semimajor_km":6840.8336002964,"source":"CELESTRAK","updated_at":"2026-09-20T09:00:44.149964Z"}}}